map of LSE home
Great Circle Mapper logo
LSE - Airport
Location
City:  La Crosse, Wisconsin, United States
Name:La Crosse Municipal Airport
ICAO / IATA:KLSE / LSE
FAA:LSE

Details
Type:Airport (Part 139 Class I)
Use:Public/Civil
Latitude:4352'45"N (43.879278)
Longitude:9115'24"W (-91.256638)
Datum:WGS 1984
Elevation:655 ft (200 m)
Runways:3
Longest:8742 × 150 ft (2665 × 45.5 m), paved

Time
Time Zone:UTC-6 (DST-5)
Local Time:

Weather
METAR:KLSE 241653Z 18008KT 10SM FEW010 BKN050 15/12 A2996 RMK AO2 SLP144 T01500117
TAF:KLSE 241731Z 2418/2518 18008KT P6SM BKN050
FM242000 18009KT 6SM HZ BKN012
FM250100 20004KT 3SM BR BKN009
FM250700 25006KT P6SM SKC
FM251600 30008KT P6SM SKC

Related Locations
Nearby:
Farthest:MGV: 10871 mi / 17496 km
Margaret River, WA, AU

Find:

   beyond  
but within

Other Information
Maps:
Delays:
NOTAMs:
Links:
Sources:

  
flag of United States
flag of Wisconsin
  

Airport Diagram

Airport diagram for LSE

Airport diagram PDF

Sectional Chart

Flight Planning
at skyvector.com

Satellite Image

Google Maps Satellite View

 

Copyright © 2004-2014 Karl L. Swartz. All rights reserved.
The Great Circle Mapper name and logo are trademarks of the Great Circle Mapper.
All other trademarks mentioned herein belong to their respective owners.
Please see credits for attibutions and further copyright information.

  Follow gcmap on Facebook Follow gcmap on Twitter

hCard Microformat

Geo Microformat